User: anonymous   Login
Location: Calvatone
(45.1167°N, 10.4333°E)
Time: 05:55:33
(UTC+00:00)
Language:

METEOR M2 - Orbit

View from above orbital plane
View from above orbital plane
View from above satellite
View from above satellite

Ground track
Ground track

The orbit data is extracted from the following two-line orbital elements,

1 40069U 14037A   24114.88145404  .00000526  00000-0  26183-3 0  9996
2 40069  98.4363 111.5502 0006359 146.1467 214.0117 14.20938396507914
Epoch (UTC): 23 April 2024 21:09:17
Eccentricity: 0.0006359
inclination: 98.4363°
perigee height: 817 km
apogee height: 827 km
right ascension of ascending node: 111.5502°
argument of perigee: 146.1467°
revolutions per day: 14.20938396
mean anomaly at epoch: 214.0117°
orbit number at epoch: 50791

The dashed part of the orbit path shows where the satellite is in the earth's shadow,  

DLR